Year,Month,Day,Hour,Minute,Value (Times are PST for temperature in C)
2006,06,23,00,00,11.80
2006,06,23,00,01,11.80
2006,06,23,00,02,11.80
2006,06,23,00,03,11.80
2006,06,23,00,04,11.80
2006,06,23,00,05,11.80
2006,06,23,00,06,11.80
2006,06,23,00,07,11.80
2006,06,23,00,08,11.80
2006,06,23,00,09,11.80
2006,06,23,00,10,11.80
2006,06,23,00,11,11.80
2006,06,23,00,12,11.80
2006,06,23,00,13,11.80
2006,06,23,00,14,11.80
2006,06,23,00,15,11.80
2006,06,23,00,16,11.80
2006,06,23,00,17,11.80
2006,06,23,00,18,11.80
2006,06,23,00,19,11.80
2006,06,23,00,20,11.80
2006,06,23,00,21,11.80
2006,06,23,00,22,11.70
2006,06,23,00,23,11.70
2006,06,23,00,24,11.70
2006,06,23,00,25,11.70
2006,06,23,00,26,11.70
2006,06,23,00,27,11.70
2006,06,23,00,28,11.70
2006,06,23,00,29,11.70
2006,06,23,00,30,11.70
2006,06,23,00,31,11.70
2006,06,23,00,32,11.60
2006,06,23,00,33,11.60
2006,06,23,00,34,11.60
2006,06,23,00,35,11.60
2006,06,23,00,36,11.60
2006,06,23,00,37,11.60
2006,06,23,00,38,11.60
2006,06,23,00,39,11.60
2006,06,23,00,40,11.60
2006,06,23,00,41,11.60
2006,06,23,00,42,11.60
2006,06,23,00,43,11.60
2006,06,23,00,44,11.60
2006,06,23,00,45,11.60
2006,06,23,00,46,11.60
2006,06,23,00,47,11.60
2006,06,23,00,48,11.60
2006,06,23,00,49,11.60
2006,06,23,00,50,11.60
2006,06,23,00,51,11.60
2006,06,23,00,52,11.60
2006,06,23,00,53,11.60
2006,06,23,00,54,11.60
2006,06,23,00,55,11.60
2006,06,23,00,56,11.60
2006,06,23,00,57,11.60
2006,06,23,00,58,11.60
2006,06,23,00,59,11.60
2006,06,23,01,00,11.60
2006,06,23,01,01,11.60
2006,06,23,01,02,11.60
2006,06,23,01,03,11.50
2006,06,23,01,04,11.40
2006,06,23,01,05,11.40
2006,06,23,01,06,11.40
2006,06,23,01,07,11.40
2006,06,23,01,08,11.40
2006,06,23,01,09,11.40
2006,06,23,01,10,11.40
2006,06,23,01,11,11.40
2006,06,23,01,12,11.40
2006,06,23,01,13,11.40
2006,06,23,01,14,11.40
2006,06,23,01,15,11.40
2006,06,23,01,16,11.40
2006,06,23,01,17,11.40
2006,06,23,01,18,11.40
2006,06,23,01,19,11.40
2006,06,23,01,20,11.40
2006,06,23,01,21,11.40
2006,06,23,01,22,11.40
2006,06,23,01,23,11.40
2006,06,23,01,24,11.40
2006,06,23,01,25,11.40
2006,06,23,01,26,11.40
2006,06,23,01,27,11.40
2006,06,23,01,28,11.30
2006,06,23,01,29,11.30
2006,06,23,01,30,11.30
2006,06,23,01,31,11.30
2006,06,23,01,32,11.30
2006,06,23,01,33,11.30
2006,06,23,01,34,11.30
2006,06,23,01,35,11.30
2006,06,23,01,36,11.30
2006,06,23,01,37,11.20
2006,06,23,01,38,11.20
2006,06,23,01,39,11.20
2006,06,23,01,40,11.20
2006,06,23,01,41,11.20
2006,06,23,01,42,11.20
2006,06,23,01,43,11.20
2006,06,23,01,44,11.20
2006,06,23,01,45,11.20
2006,06,23,01,46,11.20
2006,06,23,01,47,11.20
2006,06,23,01,48,11.20
2006,06,23,01,49,11.20
2006,06,23,01,50,11.20
2006,06,23,01,51,11.20
2006,06,23,01,52,11.10
2006,06,23,01,53,11.10
2006,06,23,01,54,11.10
2006,06,23,01,55,11.10
2006,06,23,01,56,11.10
2006,06,23,01,57,11.10
2006,06,23,01,58,11.10
2006,06,23,01,59,11.10
2006,06,23,02,00,11.10
2006,06,23,02,01,11.10
2006,06,23,02,02,11.10
2006,06,23,02,03,11.10
2006,06,23,02,04,11.10
2006,06,23,02,05,11.10
2006,06,23,02,06,11.10
2006,06,23,02,07,11.10
2006,06,23,02,08,11.10
2006,06,23,02,09,11.10
2006,06,23,02,10,11.10
2006,06,23,02,11,11.10
2006,06,23,02,12,11.10
2006,06,23,02,13,11.10
2006,06,23,02,14,11.10
2006,06,23,02,15,11.10
2006,06,23,02,16,11.10
2006,06,23,02,17,11.10
2006,06,23,02,18,11.10
2006,06,23,02,19,11.10
2006,06,23,02,20,11.10
2006,06,23,02,21,11.10
2006,06,23,02,22,11.00
2006,06,23,02,23,10.90
2006,06,23,02,24,10.90
2006,06,23,02,25,10.90
2006,06,23,02,26,10.90
2006,06,23,02,27,10.90
2006,06,23,02,28,10.90
2006,06,23,02,29,10.90
2006,06,23,02,30,10.90
2006,06,23,02,31,10.90
2006,06,23,02,32,10.90
2006,06,23,02,33,10.90
2006,06,23,02,34,10.90
2006,06,23,02,35,10.90
2006,06,23,02,36,10.90
2006,06,23,02,37,10.90
2006,06,23,02,38,10.90
2006,06,23,02,39,10.90
2006,06,23,02,40,10.90
2006,06,23,02,41,10.90
2006,06,23,02,42,10.90
2006,06,23,02,43,10.90
2006,06,23,02,44,10.90
2006,06,23,02,45,10.90
2006,06,23,02,46,10.90
2006,06,23,02,47,10.90
2006,06,23,02,48,10.90
2006,06,23,02,49,10.90
2006,06,23,02,50,10.80
2006,06,23,02,51,10.80
2006,06,23,02,52,10.80
2006,06,23,02,53,10.80
2006,06,23,02,54,10.80
2006,06,23,02,55,10.80
2006,06,23,02,56,10.80
2006,06,23,02,57,10.80
2006,06,23,02,58,10.80
2006,06,23,02,59,10.80
2006,06,23,03,00,10.80
2006,06,23,03,01,10.80
2006,06,23,03,02,10.70
2006,06,23,03,03,10.70
2006,06,23,03,04,10.70
2006,06,23,03,05,10.70
2006,06,23,03,06,10.70
2006,06,23,03,07,10.70
2006,06,23,03,08,10.70
2006,06,23,03,09,10.70
2006,06,23,03,10,10.70
2006,06,23,03,11,10.70
2006,06,23,03,12,10.70
2006,06,23,03,13,10.70
2006,06,23,03,14,10.60
2006,06,23,03,15,10.60
2006,06,23,03,16,10.60
2006,06,23,03,17,10.60
2006,06,23,03,18,10.60
2006,06,23,03,19,10.60
2006,06,23,03,20,10.60
2006,06,23,03,21,10.60
2006,06,23,03,22,10.60
2006,06,23,03,23,10.60
2006,06,23,03,24,10.60
2006,06,23,03,25,10.60
2006,06,23,03,26,10.60
2006,06,23,03,27,10.60
2006,06,23,03,28,10.60
2006,06,23,03,29,10.60
2006,06,23,03,30,10.60
2006,06,23,03,31,10.60
2006,06,23,03,32,10.60
2006,06,23,03,33,10.60
2006,06,23,03,34,10.60
2006,06,23,03,35,10.60
2006,06,23,03,36,10.60
2006,06,23,03,37,10.60
2006,06,23,03,38,10.60
2006,06,23,03,39,10.60
2006,06,23,03,40,10.60
2006,06,23,03,41,10.60
2006,06,23,03,42,10.60
2006,06,23,03,43,10.60
2006,06,23,03,44,10.60
2006,06,23,03,45,10.60
2006,06,23,03,46,10.60
2006,06,23,03,47,10.60
2006,06,23,03,48,10.60
2006,06,23,03,49,10.60
2006,06,23,03,50,10.60
2006,06,23,03,51,10.50
2006,06,23,03,52,10.40
2006,06,23,03,53,10.40
2006,06,23,03,54,10.40
2006,06,23,03,55,10.40
2006,06,23,03,56,10.40
2006,06,23,03,57,10.40
2006,06,23,03,58,10.40
2006,06,23,03,59,10.40
2006,06,23,04,00,10.40
2006,06,23,04,01,10.40
2006,06,23,04,02,10.40
2006,06,23,04,03,10.40
2006,06,23,04,04,10.40
2006,06,23,04,05,10.40
2006,06,23,04,06,10.40
2006,06,23,04,07,10.40
2006,06,23,04,08,10.40
2006,06,23,04,09,10.40
2006,06,23,04,10,10.40
2006,06,23,04,11,10.40
2006,06,23,04,12,10.40
2006,06,23,04,13,10.40
2006,06,23,04,14,10.40
2006,06,23,04,15,10.40
2006,06,23,04,16,10.40
2006,06,23,04,17,10.40
2006,06,23,04,18,10.30
2006,06,23,04,19,10.30
2006,06,23,04,20,10.30
2006,06,23,04,21,10.30
2006,06,23,04,22,10.30
2006,06,23,04,23,10.20
2006,06,23,04,24,10.20
2006,06,23,04,25,10.20
2006,06,23,04,26,10.20
2006,06,23,04,27,10.20
2006,06,23,04,28,10.10
2006,06,23,04,29,10.10
2006,06,23,04,30,10.10
2006,06,23,04,31,10.10
2006,06,23,04,32,10.10
2006,06,23,04,33,10.10
2006,06,23,04,34,10.10
2006,06,23,04,35,10.10
2006,06,23,04,36,10.10
2006,06,23,04,37,10.10
2006,06,23,04,38,10.10
2006,06,23,04,39,10.10
2006,06,23,04,40,10.10
2006,06,23,04,41,10.10
2006,06,23,04,42,10.10
2006,06,23,04,43,10.10
2006,06,23,04,44,10.10
2006,06,23,04,45,10.10
2006,06,23,04,46,10.10
2006,06,23,04,47,10.10
2006,06,23,04,48,10.10
2006,06,23,04,49,10.10
2006,06,23,04,50,10.10
2006,06,23,04,51,10.10
2006,06,23,04,52,10.10
2006,06,23,04,53,10.00
2006,06,23,04,54,9.90
2006,06,23,04,55,9.90
2006,06,23,04,56,9.90
2006,06,23,04,57,9.90
2006,06,23,04,58,9.90
2006,06,23,04,59,9.90
2006,06,23,05,00,9.90
2006,06,23,05,01,9.90
2006,06,23,05,02,9.90
2006,06,23,05,03,9.90
2006,06,23,05,04,9.90
2006,06,23,05,05,9.80
2006,06,23,05,06,9.80
2006,06,23,05,07,9.80
2006,06,23,05,08,9.80
2006,06,23,05,09,9.80
2006,06,23,05,10,9.80
2006,06,23,05,11,9.80
2006,06,23,05,12,9.80
2006,06,23,05,13,9.80
2006,06,23,05,14,9.80
2006,06,23,05,15,9.80
2006,06,23,05,16,9.80
2006,06,23,05,17,9.80
2006,06,23,05,18,9.80
2006,06,23,05,19,9.80
2006,06,23,05,20,9.80
2006,06,23,05,21,9.80
2006,06,23,05,22,9.70
2006,06,23,05,23,9.70
2006,06,23,05,24,9.70
2006,06,23,05,25,9.70
2006,06,23,05,26,9.70
2006,06,23,05,27,9.70
2006,06,23,05,28,9.70
2006,06,23,05,29,9.70
2006,06,23,05,30,9.70
2006,06,23,05,31,9.70
2006,06,23,05,32,9.70
2006,06,23,05,33,9.70
2006,06,23,05,34,9.70
2006,06,23,05,35,9.70
2006,06,23,05,36,9.70
2006,06,23,05,37,9.70
2006,06,23,05,38,9.70
2006,06,23,05,39,9.70
2006,06,23,05,40,9.70
2006,06,23,05,41,9.70
2006,06,23,05,42,9.70
2006,06,23,05,43,9.70
2006,06,23,05,44,9.70
2006,06,23,05,45,9.70
2006,06,23,05,46,9.70
2006,06,23,05,47,9.70
2006,06,23,05,48,9.70
2006,06,23,05,49,9.70
2006,06,23,05,50,9.70
2006,06,23,05,51,9.70
2006,06,23,05,52,9.70
2006,06,23,05,53,9.70
2006,06,23,05,54,9.70
2006,06,23,05,55,9.70
2006,06,23,05,56,9.70
2006,06,23,05,57,9.80
2006,06,23,05,58,9.80
2006,06,23,05,59,9.80
2006,06,23,06,00,9.80
2006,06,23,06,01,9.80
2006,06,23,06,02,9.80
2006,06,23,06,03,9.90
2006,06,23,06,04,9.90
2006,06,23,06,05,9.90
2006,06,23,06,06,9.90
2006,06,23,06,07,9.90
2006,06,23,06,08,9.90
2006,06,23,06,09,9.90
2006,06,23,06,10,9.90
2006,06,23,06,11,9.90
2006,06,23,06,12,9.90
2006,06,23,06,13,9.90
2006,06,23,06,14,10.00
2006,06,23,06,15,10.10
2006,06,23,06,16,10.10
2006,06,23,06,17,10.10
2006,06,23,06,18,10.10
2006,06,23,06,19,10.20
2006,06,23,06,20,10.20
2006,06,23,06,21,10.20
2006,06,23,06,22,10.30
2006,06,23,06,23,10.30
2006,06,23,06,24,10.40
2006,06,23,06,25,10.40
2006,06,23,06,26,10.40
2006,06,23,06,27,10.40
2006,06,23,06,28,10.50
2006,06,23,06,29,10.60
2006,06,23,06,30,10.60
2006,06,23,06,31,10.60
2006,06,23,06,32,10.70
2006,06,23,06,33,10.80
2006,06,23,06,34,10.80
2006,06,23,06,35,10.90
2006,06,23,06,36,10.90
2006,06,23,06,37,10.90
2006,06,23,06,38,11.00
2006,06,23,06,39,11.10
2006,06,23,06,40,11.10
2006,06,23,06,41,11.10
2006,06,23,06,42,11.10
2006,06,23,06,43,11.10
2006,06,23,06,44,11.10
2006,06,23,06,45,11.20
2006,06,23,06,46,11.20
2006,06,23,06,47,11.20
2006,06,23,06,48,11.30
2006,06,23,06,49,11.30
2006,06,23,06,50,11.30
2006,06,23,06,51,11.40
2006,06,23,06,52,11.40
2006,06,23,06,53,11.40
2006,06,23,06,54,11.60
2006,06,23,06,55,11.60
2006,06,23,06,56,11.70
2006,06,23,06,57,11.80
2006,06,23,06,58,11.80
2006,06,23,06,59,11.90
2006,06,23,07,00,12.00
2006,06,23,07,01,12.10
2006,06,23,07,02,12.20
2006,06,23,07,03,12.30
2006,06,23,07,04,12.30
2006,06,23,07,05,12.40
2006,06,23,07,06,12.40
2006,06,23,07,07,12.50
2006,06,23,07,08,12.50
2006,06,23,07,09,12.60
2006,06,23,07,10,12.60
2006,06,23,07,11,12.70
2006,06,23,07,12,12.80
2006,06,23,07,13,12.80
2006,06,23,07,14,12.90
2006,06,23,07,15,13.00
2006,06,23,07,16,13.00
2006,06,23,07,17,13.10
2006,06,23,07,18,13.20
2006,06,23,07,19,13.20
2006,06,23,07,20,13.30
2006,06,23,07,21,13.30
2006,06,23,07,22,13.30
2006,06,23,07,23,13.30
2006,06,23,07,24,13.30
2006,06,23,07,25,13.30
2006,06,23,07,26,13.30
2006,06,23,07,27,13.30
2006,06,23,07,28,13.40
2006,06,23,07,29,13.50
2006,06,23,07,30,13.60
2006,06,23,07,31,13.60
2006,06,23,07,32,13.50
2006,06,23,07,33,13.50
2006,06,23,07,34,13.50
2006,06,23,07,35,13.50
2006,06,23,07,36,13.50
2006,06,23,07,37,13.50
2006,06,23,07,38,13.60
2006,06,23,07,39,13.60
2006,06,23,07,40,13.60
2006,06,23,07,41,13.70
2006,06,23,07,42,13.70
2006,06,23,07,43,13.70
2006,06,23,07,44,13.70
2006,06,23,07,45,13.70
2006,06,23,07,46,13.70
2006,06,23,07,47,13.70
2006,06,23,07,48,13.70
2006,06,23,07,49,13.80
2006,06,23,07,50,13.80
2006,06,23,07,51,13.90
2006,06,23,07,52,13.90
2006,06,23,07,53,14.00
2006,06,23,07,54,14.00
2006,06,23,07,55,14.10
2006,06,23,07,56,14.20
2006,06,23,07,57,14.20
2006,06,23,07,58,14.20
2006,06,23,07,59,14.30
2006,06,23,08,00,14.30
2006,06,23,08,01,14.30
2006,06,23,08,02,14.40
2006,06,23,08,03,14.40
2006,06,23,08,04,14.40
2006,06,23,08,05,14.50
2006,06,23,08,06,14.50
2006,06,23,08,07,14.50
2006,06,23,08,08,14.60
2006,06,23,08,09,14.70
2006,06,23,08,10,14.70
2006,06,23,08,11,14.70
2006,06,23,08,12,14.60
2006,06,23,08,13,14.60
2006,06,23,08,14,14.60
2006,06,23,08,15,14.50
2006,06,23,08,16,14.50
2006,06,23,08,17,14.50
2006,06,23,08,18,14.50
2006,06,23,08,19,14.40
2006,06,23,08,20,14.10
2006,06,23,08,21,13.80
2006,06,23,08,22,13.70
2006,06,23,08,23,13.70
2006,06,23,08,24,13.60
2006,06,23,08,25,13.60
2006,06,23,08,26,13.30
2006,06,23,08,27,13.30
2006,06,23,08,28,13.30
2006,06,23,08,29,13.20
2006,06,23,08,30,13.10
2006,06,23,08,31,12.90
2006,06,23,08,32,12.90
2006,06,23,08,33,12.90
2006,06,23,08,34,12.90
2006,06,23,08,35,12.90
2006,06,23,08,36,12.90
2006,06,23,08,37,12.90
2006,06,23,08,38,12.90
2006,06,23,08,39,12.90
2006,06,23,08,40,13.00
2006,06,23,08,41,13.00
2006,06,23,08,42,13.00
2006,06,23,08,43,13.00
2006,06,23,08,44,13.00
2006,06,23,08,45,13.00
2006,06,23,08,46,13.00
2006,06,23,08,47,13.10
2006,06,23,08,48,13.20
2006,06,23,08,49,13.20
2006,06,23,08,50,13.30
2006,06,23,08,51,13.30
2006,06,23,08,52,13.30
2006,06,23,08,53,13.40
2006,06,23,08,54,13.50
2006,06,23,08,55,13.60
2006,06,23,08,56,13.70
2006,06,23,08,57,13.90
2006,06,23,08,58,13.90
2006,06,23,08,59,14.00
2006,06,23,09,00,14.00
2006,06,23,09,01,14.10
2006,06,23,09,02,14.20
2006,06,23,09,03,14.20
2006,06,23,09,04,14.30
2006,06,23,09,05,14.40
2006,06,23,09,06,14.50
2006,06,23,09,07,14.60
2006,06,23,09,08,14.70
2006,06,23,09,09,14.70
2006,06,23,09,10,14.80
2006,06,23,09,11,14.90
2006,06,23,09,12,15.00
2006,06,23,09,13,15.10
2006,06,23,09,14,15.10
2006,06,23,09,15,15.00
2006,06,23,09,16,15.10
2006,06,23,09,17,15.20
2006,06,23,09,18,15.10
2006,06,23,09,19,15.00
2006,06,23,09,20,14.80
2006,06,23,09,21,14.70
2006,06,23,09,22,14.60
2006,06,23,09,23,14.60
2006,06,23,09,24,14.60
2006,06,23,09,25,14.70
2006,06,23,09,26,14.70
2006,06,23,09,27,14.80
2006,06,23,09,28,14.80
2006,06,23,09,29,14.70
2006,06,23,09,30,14.80
2006,06,23,09,31,14.80
2006,06,23,09,32,14.80
2006,06,23,09,33,14.70
2006,06,23,09,34,14.60
2006,06,23,09,35,14.50
2006,06,23,09,36,14.40
2006,06,23,09,37,14.30
2006,06,23,09,38,14.40
2006,06,23,09,39,14.30
2006,06,23,09,40,14.20
2006,06,23,09,41,14.20
2006,06,23,09,42,14.20
2006,06,23,09,43,14.20
2006,06,23,09,44,14.20
2006,06,23,09,45,14.20
2006,06,23,09,46,14.20
2006,06,23,09,47,14.20
2006,06,23,09,48,14.20
2006,06,23,09,49,14.30
2006,06,23,09,50,14.30
2006,06,23,09,51,14.40
2006,06,23,09,52,14.40
2006,06,23,09,53,14.30
2006,06,23,09,54,14.30
2006,06,23,09,55,14.30
2006,06,23,09,56,14.30
2006,06,23,09,57,14.40
2006,06,23,09,58,14.40
2006,06,23,09,59,14.50
2006,06,23,10,00,14.50
2006,06,23,10,01,14.50
2006,06,23,10,02,14.40
2006,06,23,10,03,14.50
2006,06,23,10,04,14.60
2006,06,23,10,05,14.80
2006,06,23,10,06,14.90
2006,06,23,10,07,14.90
2006,06,23,10,08,14.90
2006,06,23,10,09,14.80
2006,06,23,10,10,14.90
2006,06,23,10,11,14.90
2006,06,23,10,12,14.90
2006,06,23,10,13,14.80
2006,06,23,10,14,14.90
2006,06,23,10,15,15.00
2006,06,23,10,16,15.10
2006,06,23,10,17,15.10
2006,06,23,10,18,15.10
2006,06,23,10,19,15.20
2006,06,23,10,20,15.30
2006,06,23,10,21,15.50
2006,06,23,10,22,15.50
2006,06,23,10,23,15.50
2006,06,23,10,24,15.40
2006,06,23,10,25,15.30
2006,06,23,10,26,15.10
2006,06,23,10,27,15.10
2006,06,23,10,28,15.20
2006,06,23,10,29,15.20
2006,06,23,10,30,15.20
2006,06,23,10,31,15.20
2006,06,23,10,32,15.30
2006,06,23,10,33,15.30
2006,06,23,10,34,15.30
2006,06,23,10,35,15.30
2006,06,23,10,36,15.10
2006,06,23,10,37,15.10
2006,06,23,10,38,15.20
2006,06,23,10,39,15.20
2006,06,23,10,40,15.30
2006,06,23,10,41,15.30
2006,06,23,10,42,15.50
2006,06,23,10,43,15.50
2006,06,23,10,44,15.60
2006,06,23,10,45,15.70
2006,06,23,10,46,15.80
2006,06,23,10,47,15.80
2006,06,23,10,48,15.80
2006,06,23,10,49,15.90
2006,06,23,10,50,15.90
2006,06,23,10,51,15.80
2006,06,23,10,52,15.80
2006,06,23,10,53,15.80
2006,06,23,10,54,16.00
2006,06,23,10,55,16.10
2006,06,23,10,56,16.10
2006,06,23,10,57,16.20
2006,06,23,10,58,16.30
2006,06,23,10,59,16.40
2006,06,23,11,00,16.40
2006,06,23,11,01,16.40
2006,06,23,11,02,16.40
2006,06,23,11,03,16.40
2006,06,23,11,04,16.40
2006,06,23,11,05,16.50
2006,06,23,11,06,16.60
2006,06,23,11,07,16.70
2006,06,23,11,08,16.70
2006,06,23,11,09,16.70
2006,06,23,11,10,16.70
2006,06,23,11,11,16.80
2006,06,23,11,12,16.60
2006,06,23,11,13,16.40
2006,06,23,11,14,16.40
2006,06,23,11,15,16.50
2006,06,23,11,16,16.60
2006,06,23,11,17,16.60
2006,06,23,11,18,16.60
2006,06,23,11,19,16.40
2006,06,23,11,20,16.40
2006,06,23,11,21,16.30
2006,06,23,11,22,16.20
2006,06,23,11,23,16.10
2006,06,23,11,24,16.00
2006,06,23,11,25,15.90
2006,06,23,11,26,15.90
2006,06,23,11,27,16.00
2006,06,23,11,28,16.20
2006,06,23,11,29,16.40
2006,06,23,11,30,16.60
2006,06,23,11,31,16.80
2006,06,23,11,32,17.10
2006,06,23,11,33,17.40
2006,06,23,11,34,17.60
2006,06,23,11,35,17.90
2006,06,23,11,36,18.00
2006,06,23,11,37,18.20
2006,06,23,11,38,18.30
2006,06,23,11,39,18.30
2006,06,23,11,40,18.40
2006,06,23,11,41,18.50
2006,06,23,11,42,18.60
2006,06,23,11,43,18.70
2006,06,23,11,44,18.80
2006,06,23,11,45,18.80
2006,06,23,11,46,18.90
2006,06,23,11,47,18.90
2006,06,23,11,48,19.00
2006,06,23,11,49,19.10
2006,06,23,11,50,19.10
2006,06,23,11,51,19.10
2006,06,23,11,52,19.10
2006,06,23,11,53,19.20
2006,06,23,11,54,19.30
2006,06,23,11,55,19.40
2006,06,23,11,56,19.40
2006,06,23,11,57,19.50
2006,06,23,11,58,19.50
2006,06,23,11,59,19.50
2006,06,23,12,00,19.60
2006,06,23,12,01,19.60
2006,06,23,12,02,19.70
2006,06,23,12,03,19.70
2006,06,23,12,04,19.80
2006,06,23,12,05,19.80
2006,06,23,12,06,19.80
2006,06,23,12,07,19.90
2006,06,23,12,08,19.90
2006,06,23,12,09,19.90
2006,06,23,12,10,19.90
2006,06,23,12,11,19.90
2006,06,23,12,12,19.90
2006,06,23,12,13,19.90
2006,06,23,12,14,20.00
2006,06,23,12,15,20.10
2006,06,23,12,16,20.10
2006,06,23,12,17,20.10
2006,06,23,12,18,20.10
2006,06,23,12,19,20.10
2006,06,23,12,20,20.10
2006,06,23,12,21,20.10
2006,06,23,12,22,20.10
2006,06,23,12,23,20.10
2006,06,23,12,24,20.10
2006,06,23,12,25,20.20
2006,06,23,12,26,20.20
2006,06,23,12,27,20.20
2006,06,23,12,28,20.20
2006,06,23,12,29,20.20
2006,06,23,12,30,20.20
2006,06,23,12,31,20.30
2006,06,23,12,32,20.30
2006,06,23,12,33,20.30
2006,06,23,12,34,20.40
2006,06,23,12,35,20.40
2006,06,23,12,36,20.40
2006,06,23,12,37,20.40
2006,06,23,12,38,20.50
2006,06,23,12,39,20.50
2006,06,23,12,40,20.50
2006,06,23,12,41,20.50
2006,06,23,12,42,20.60
2006,06,23,12,43,20.60
2006,06,23,12,44,20.60
2006,06,23,12,45,20.60
2006,06,23,12,46,20.50
2006,06,23,12,47,20.50
2006,06,23,12,48,20.50
2006,06,23,12,49,20.40
2006,06,23,12,50,20.40
2006,06,23,12,51,20.40
2006,06,23,12,52,20.40
2006,06,23,12,53,20.40
2006,06,23,12,54,20.40
2006,06,23,12,55,20.50
2006,06,23,12,56,20.50
2006,06,23,12,57,20.60
2006,06,23,12,58,20.60
2006,06,23,12,59,20.60
2006,06,23,13,00,20.60
2006,06,23,13,01,20.50
2006,06,23,13,02,20.50
2006,06,23,13,03,20.40
2006,06,23,13,04,20.50
2006,06,23,13,05,20.50
2006,06,23,13,06,20.60
2006,06,23,13,07,20.50
2006,06,23,13,08,20.40
2006,06,23,13,09,20.10
2006,06,23,13,10,19.90
2006,06,23,13,11,19.60
2006,06,23,13,12,19.40
2006,06,23,13,13,19.40
2006,06,23,13,14,19.20
2006,06,23,13,15,19.10
2006,06,23,13,16,19.20
2006,06,23,13,17,19.10
2006,06,23,13,18,18.90
2006,06,23,13,19,18.80
2006,06,23,13,20,18.80
2006,06,23,13,21,18.70
2006,06,23,13,22,18.80
2006,06,23,13,23,18.70
2006,06,23,13,24,18.60
2006,06,23,13,25,18.70
2006,06,23,13,26,18.60
2006,06,23,13,27,18.40
2006,06,23,13,28,18.10
2006,06,23,13,29,17.90
2006,06,23,13,30,17.70
2006,06,23,13,31,17.80
2006,06,23,13,32,17.80
2006,06,23,13,33,17.90
2006,06,23,13,34,17.90
2006,06,23,13,35,17.90
2006,06,23,13,36,18.00
2006,06,23,13,37,18.10
2006,06,23,13,38,18.30
2006,06,23,13,39,18.50
2006,06,23,13,40,18.60
2006,06,23,13,41,18.70
2006,06,23,13,42,18.70
2006,06,23,13,43,18.80
2006,06,23,13,44,18.90
2006,06,23,13,45,18.90
2006,06,23,13,46,18.90
2006,06,23,13,47,18.80
2006,06,23,13,48,18.60
2006,06,23,13,49,18.50
2006,06,23,13,50,18.40
2006,06,23,13,51,18.30
2006,06,23,13,52,18.30
2006,06,23,13,53,18.10
2006,06,23,13,54,17.90
2006,06,23,13,55,17.90
2006,06,23,13,56,17.90
2006,06,23,13,57,17.90
2006,06,23,13,58,17.90
2006,06,23,13,59,17.80
2006,06,23,14,00,17.80
2006,06,23,14,01,17.80
2006,06,23,14,02,17.70
2006,06,23,14,03,17.60
2006,06,23,14,04,17.70
2006,06,23,14,05,17.70
2006,06,23,14,06,17.70
2006,06,23,14,07,17.70
2006,06,23,14,08,17.80
2006,06,23,14,09,17.70
2006,06,23,14,10,17.60
2006,06,23,14,11,17.50
2006,06,23,14,12,17.40
2006,06,23,14,13,17.40
2006,06,23,14,14,17.30
2006,06,23,14,15,17.20
2006,06,23,14,16,17.10
2006,06,23,14,17,17.10
2006,06,23,14,18,17.20
2006,06,23,14,19,17.30
2006,06,23,14,20,17.30
2006,06,23,14,21,17.40
2006,06,23,14,22,17.60
2006,06,23,14,23,17.80
2006,06,23,14,24,17.90
2006,06,23,14,25,17.90
2006,06,23,14,26,17.90
2006,06,23,14,27,18.10
2006,06,23,14,28,18.20
2006,06,23,14,29,18.40
2006,06,23,14,30,18.60
2006,06,23,14,31,18.60
2006,06,23,14,32,18.50
2006,06,23,14,33,18.50
2006,06,23,14,34,18.60
2006,06,23,14,35,18.60
2006,06,23,14,36,18.40
2006,06,23,14,37,18.40
2006,06,23,14,38,18.40
2006,06,23,14,39,18.30
2006,06,23,14,40,18.20
2006,06,23,14,41,18.20
2006,06,23,14,42,18.20
2006,06,23,14,43,18.30
2006,06,23,14,44,18.40
2006,06,23,14,45,18.50
2006,06,23,14,46,18.60
2006,06,23,14,47,18.70
2006,06,23,14,48,18.60
2006,06,23,14,49,18.70
2006,06,23,14,50,18.80
2006,06,23,14,51,18.80
2006,06,23,14,52,19.00
2006,06,23,14,53,19.10
2006,06,23,14,54,19.20
2006,06,23,14,55,19.40
2006,06,23,14,56,19.60
2006,06,23,14,57,19.60
2006,06,23,14,58,19.50
2006,06,23,14,59,19.50
2006,06,23,15,00,19.50
2006,06,23,15,01,19.40
2006,06,23,15,02,19.30
2006,06,23,15,03,19.20
2006,06,23,15,04,19.10
2006,06,23,15,05,18.80
2006,06,23,15,06,18.60
2006,06,23,15,07,18.50
2006,06,23,15,08,18.50
2006,06,23,15,09,18.40
2006,06,23,15,10,18.40
2006,06,23,15,11,18.40
2006,06,23,15,12,18.30
2006,06,23,15,13,18.40
2006,06,23,15,14,18.40
2006,06,23,15,15,18.30
2006,06,23,15,16,18.20
2006,06,23,15,17,18.20
2006,06,23,15,18,18.20
2006,06,23,15,19,18.20
2006,06,23,15,20,18.20
2006,06,23,15,21,18.20
2006,06,23,15,22,18.20
2006,06,23,15,23,18.20
2006,06,23,15,24,18.20
2006,06,23,15,25,18.30
2006,06,23,15,26,18.40
2006,06,23,15,27,18.40
2006,06,23,15,28,18.30
2006,06,23,15,29,18.30
2006,06,23,15,30,18.20
2006,06,23,15,31,18.30
2006,06,23,15,32,18.30
2006,06,23,15,33,18.40
2006,06,23,15,34,18.50
2006,06,23,15,35,18.50
2006,06,23,15,36,18.50
2006,06,23,15,37,18.50
2006,06,23,15,38,18.50
2006,06,23,15,39,18.70
2006,06,23,15,40,18.60
2006,06,23,15,41,18.60
2006,06,23,15,42,18.60
2006,06,23,15,43,18.60
2006,06,23,15,44,18.50
2006,06,23,15,45,18.50
2006,06,23,15,46,18.40
2006,06,23,15,47,18.40
2006,06,23,15,48,18.40
2006,06,23,15,49,18.40
2006,06,23,15,50,18.30
2006,06,23,15,51,18.20
2006,06,23,15,52,18.20
2006,06,23,15,53,18.20
2006,06,23,15,54,18.20
2006,06,23,15,55,18.10
2006,06,23,15,56,18.00
2006,06,23,15,57,17.90
2006,06,23,15,58,17.90
2006,06,23,15,59,17.90
2006,06,23,16,00,17.90
2006,06,23,16,01,17.90
2006,06,23,16,02,17.90
2006,06,23,16,03,17.90
2006,06,23,16,04,17.90
2006,06,23,16,05,17.90
2006,06,23,16,06,17.90
2006,06,23,16,07,17.90
2006,06,23,16,08,17.90
2006,06,23,16,09,17.90
2006,06,23,16,10,18.10
2006,06,23,16,11,18.20
2006,06,23,16,12,18.20
2006,06,23,16,13,18.30
2006,06,23,16,14,18.30
2006,06,23,16,15,18.30
2006,06,23,16,16,18.40
2006,06,23,16,17,18.50
2006,06,23,16,18,18.60
2006,06,23,16,19,18.60
2006,06,23,16,20,18.70
2006,06,23,16,21,18.70
2006,06,23,16,22,18.90
2006,06,23,16,23,19.00
2006,06,23,16,24,19.10
2006,06,23,16,25,19.20
2006,06,23,16,26,19.30
2006,06,23,16,27,19.30
2006,06,23,16,28,19.30
2006,06,23,16,29,19.40
2006,06,23,16,30,19.50
2006,06,23,16,31,19.60
2006,06,23,16,32,19.70
2006,06,23,16,33,19.70
2006,06,23,16,34,19.80
2006,06,23,16,35,19.80
2006,06,23,16,36,19.70
2006,06,23,16,37,19.60
2006,06,23,16,38,19.50
2006,06,23,16,39,19.50
2006,06,23,16,40,19.50
2006,06,23,16,41,19.50
2006,06,23,16,42,19.40
2006,06,23,16,43,19.30
2006,06,23,16,44,19.30
2006,06,23,16,45,19.20
2006,06,23,16,46,19.30
2006,06,23,16,47,19.30
2006,06,23,16,48,19.30
2006,06,23,16,49,19.50
2006,06,23,16,50,19.60
2006,06,23,16,51,19.70
2006,06,23,16,52,19.60
2006,06,23,16,53,19.40
2006,06,23,16,54,19.30
2006,06,23,16,55,19.20
2006,06,23,16,56,19.10
2006,06,23,16,57,19.10
2006,06,23,16,58,19.00
2006,06,23,16,59,19.00
2006,06,23,17,00,19.20
2006,06,23,17,01,19.30
2006,06,23,17,02,19.30
2006,06,23,17,03,19.30
2006,06,23,17,04,19.20
2006,06,23,17,05,19.10
2006,06,23,17,06,19.10
2006,06,23,17,07,19.20
2006,06,23,17,08,19.20
2006,06,23,17,09,19.10
2006,06,23,17,10,19.10
2006,06,23,17,11,19.10
2006,06,23,17,12,19.10
2006,06,23,17,13,19.10
2006,06,23,17,14,19.10
2006,06,23,17,15,19.10
2006,06,23,17,16,19.10
2006,06,23,17,17,19.10
2006,06,23,17,18,19.20
2006,06,23,17,19,19.20
2006,06,23,17,20,19.20
2006,06,23,17,21,19.20
2006,06,23,17,22,19.20